Location: Baia Mare
(47.6567°N, 23.5850°E)
Time: 03:17:35
(UTC+03:00)

ISS - Pass Details

Date: 23 July 2018
Orbit: 402 x 408 km, 51.6° (Epoch: 17 July)

Event Time Altitude Azimuth Distance (km) Brightness Sun altitude
Rises 00:39:17 0° 280° (W) 2,324 0.3 -21.2°
Reaches altitude 10° 00:41:26 10° 289° (WNW) 1,465 -0.6 -21.2°
Maximum altitude 00:44:33 39° 360° (N) 628 -2.4 -21.4°
Drops below altitude 10° 00:47:40 10° 71° (ENE) 1,468 -0.9 -21.5°
Enters shadow 00:48:16 - 74° (ENE) 1,700 -0.6 -21.5°
